{"data":{"norad_id":55342,"intl_designator":"2023-013M","name":"STARLINK-5657","alt_names":[],"object_type":"PAYLOAD","status":"ACTIVE","operator":null,"country":"US","launch_date":"2023-01-26","launch_site_code":"AFETR","launch_vehicle":null,"mission":null,"orbit_class":"UNKNOWN","rcs_meters":null,"size_class":null,"mass_kg":null,"dimensions":null,"purposes":["comms"],"wikipedia_slug":null,"has_3d_model":false,"image_url":null,"decayed_at":null,"tle_current":{"epoch":"2026-05-24T23:02:09.629088Z","epoch_age_seconds":74631,"freshness":"FRESH","line1":"1 55342U 23013M   26144.95983367  .00001727  00000+0  72264-4 0  9996","line2":"2 55342  43.0040 233.0444 0001986 270.1932  89.8692 15.27591990183338","mean_motion":15.2759199,"eccentricity":0.0001986,"inclination_deg":43.004,"raan_deg":233.0444,"arg_perigee_deg":270.1932,"mean_anomaly_deg":89.8692,"bstar":7.2264e-5,"rev_number":18333,"period_min":94.266008818232,"perigee_km":481.65056947259,"apogee_km":484.37581832961,"semimajor_km":6861.1501939011,"source":"CELESTRAK","updated_at":"2026-05-25T13:38:17.761990Z"}}}